Location: La Silve
(44.2414°N, 5.8889°E)
Time: 19:55:46
(UTC+00:00)

CENTAUR R/B - Pass Details

Date: 11 April 2021
Orbit: 742 x 1446 km, 63.4° (Epoch: 18 April)

Event Time Altitude Azimuth Distance (km) Brightness Sun altitude
Rises 18:47:29 0° 323° (NW) 4,102 6.8 -6.2°
Reaches altitude 10° 18:50:13 10° 328° (NNW) 3,228 6.1 -6.7°
Maximum altitude 18:58:01 52° 44° (NE) 1,657 3.6 -8.0°
Enters shadow 19:06:25 11° 119° (ESE) 3,489 4.7 -9.4°
